Regional Weather Roundup
Issued by NWS

Home | Current Version | Previous Version | Text Only | Print | Product List | Glossary Off
Versions: 1 2 3 4 5 6 7 8 9 10 11 12 13 14 15 16 17 18 19 20 21 22 23 24 25 26 27 28 29 30 31 32 33 34 35 36 37 38 39 40 41 42 43 44 45 46 47 48 49 50

000
ASUS43 KBIS 200510
RWRND

NORTH DAKOTA REGIONAL WEATHER ROUNDUP
NATIONAL WEATHER SERVICE BISMARCK ND
1200 AM CDT FRI OCT 20 2017

NOTE: "FAIR" INDICATES FEW OR NO CLOUDS BELOW 12,000 FEET WITH NO
SIGNIFICANT WEATHER AND/OR OBSTRUCTIONS TO VISIBILITY.


NDZ001>003-009>011-017-200600-
NORTHWEST NORTH DAKOTA

CITY           SKY/WX    TMP DP  RH WIND       PRES   REMARKS
WILLISTON      PTCLDY    45  33  63 W3        29.56F
MINOT          FAIR      53  36  52 E3        29.61F
MINOT AFB      FAIR      46  34  61 S7        29.59F
$$

NDZ018>021-031>035-040>046-200600-
SOUTHWEST NORTH DAKOTA

CITY           SKY/WX    TMP DP  RH WIND       PRES   REMARKS
BISMARCK       CLEAR     50  40  68 NE8       29.66F
DICKINSON      CLEAR     49  28  44 S10       29.60F
GARRISON         N/A     52  39  61 E6        29.63F
HETTINGER ARPT CLEAR     51  32  48 E7        29.64F
$$

NDZ004>008-012>016-024-026-027-054-200600-
NORTHEAST NORTH DAKOTA

CITY           SKY/WX    TMP DP  RH WIND       PRES   REMARKS
GRAND FORKS    FAIR      49  40  71 S5        29.70S
GRND FRKS AFB  FAIR      49  40  71 S9        29.69S
DEVILS LAKE    FAIR      53  41  63 SE7       29.68F
$$

NDZ022-023-025-028>030-036>039-047>053-200600-
SOUTHEAST NORTH DAKOTA

CITY           SKY/WX    TMP DP  RH WIND       PRES   REMARKS
FARGO          FAIR      60  47  61 S13       29.73F
JAMESTOWN      FAIR      46  39  76 S5        29.69F
$$





USA.gov is the U.S. government's official web portal to all federal, state and local government web resources and services.